{"data":{"norad_id":53837,"epoch":"2026-05-25T04:25:56.937792Z","epoch_age_seconds":59007,"freshness":"FRESH","line1":"1 53837U 22114V   26145.18468678  .00013445  00000+0  86284-3 0  9999","line2":"2 53837  53.2137 320.4317 0001363 107.4094 252.7047 15.08771576204388","mean_motion":15.08771576,"eccentricity":0.0001363,"inclination_deg":53.2137,"raan_deg":320.4317,"arg_perigee_deg":107.4094,"mean_anomaly_deg":252.7047,"bstar":0.00086284,"rev_number":20438,"period_min":95.441882847348,"perigee_km":539.00960605817,"apogee_km":540.89547726722,"semimajor_km":6918.0895416627,"source":"CELESTRAK","updated_at":"2026-05-25T13:38:17.573133Z"}}